Vorticity
4 5 4 5 5 5 3 5 5 6 3 5 3 2 3 4 4 9 8 4 -3 5 5 5 4 7 5 7 5 5 4 5 3 6 9 11 11 8 6 5 4 4 6
4 4 2 3 3 4 4 5 5 5 5 3 3 3 1 1 4 7 4 6 11 4 7 4 1 3 4 4 4 3 4 5 4 5 5 5 6 5 5 5 4 3 3
2 2 2 4 4 5 7 5 4 5 6 3 5 3 4 3 2 2 6 4 2 8 8 5 4 1 2 7 6 2 3 0 1 5 4 1 2 4 6 5 5 7 5
3 4 4 4 6 3 3 5 3 4 6 6 5 5 6 5 4 4 3 6 5 4 5 7 5 5 -1 3 9 7 11 17 0 1 2 5 5 2 4 2 3 3 5
6 7 6 5 7 6 1 3 4 4 5 5 5 7 6 5 5 4 4 5 5 7 9 6 6 6 10 8 9 5 11 18 30 4 -1 2 7 5 2 4 2 6 5
5 4 5 5 5 5 4 4 4 3 3 4 4 4 5 9 10 8 7 5 5 3 5 7 1 7 5 6 -2 11 14 5 1 43 8 -3 4 5 8 -0 -1 6 5
4 3 4 4 4 4 4 4 3 4 3 7 5 6 5 2 4 4 7 8 9 7 5 8 12 10 0 1 6 4 1 1 -1 -2 7 24 25 15 19 14 -0 14 1
4 5 4 4 3 2 2 2 3 4 7 7 5 4 5 6 6 7 6 5 8 6 2 4 20 3 5 6 5 3 5 -1 3 -0 -3 -1 9 9 11 14 12 7 5
6 5 4 4 3 4 7 7 6 5 3 6 5 6 6 7 7 8 11 9 2 1 7 21 4 20 5 -1 1 0 2 3 3 4 2 -0 0 4 4 4 1 13 6
3 3 3 4 5 5 4 5 6 6 7 3 4 9 14 17 16 17 5 10 8 8 15 4 5 9 5 8 2 0 -2 1 5 3 1 -1 1 5 3 -3 -7 4 11
4 4 5 6 4 2 1 2 2 8 16 26 26 19 14 11 8 -0 -6 14 -0 2 7 17 18 9 9 5 9 12 14 15 7 4 -1 6 2 7 9 4 26 30 18
3 2 3 3 1 2 5 5 3 9 15 16 16 11 11 11 8 9 11 16 14 9 11 12 11 6 10 9 4 11 -9 -4 7 6 10 11 14 7 -10 9 3 -22 -32
1 2 -0 1 1 3 4 4 4 4 12 11 12 18 16 7 1 2 9 8 3 2 7 1 7 5 10 19 -2 -7 16 18 18 -6 -3 0 18 4 3 9 2 7 36
2 3 2 2 2 4 5 5 5 5 -2 5 16 29 24 34 27 17 7 -1 8 8 3 3 7 12 15 10 -7 25 -2 15 7 2 11 7 0 7 17 9 9 3 20
3 6 2 6 9 5 5 8 3 6 13 32 30 31 27 35 25 28 44 39 43 49 11 16 7 10 4 5 11 9 -2 -5 -8 -2 18 1 4 12 3 2 13 -5 -11
4 4 11 7 4 3 8 14 26 40 39 34 24 26 27 23 46 58 -61 33 22 -4 33 22 20 26 10 12 13 12 7 10 9 8 2 6 11 18 -1 10 6 19 1
9 8 5 5 7 3 14 36 33 23 15 13 9 11 13 7 13 -32 35 48 27 25 41 26 2 7 23 22 16 16 1 12 17 11 20 12 -0 13 -5 11 20 2 2
6 5 5 6 7 16 43 27 17 12 12 12 19 18 16 17 9 21 16 11 -43 -31 19 32 25 39 -11 24 33 39 26 18 4 -7 11 -12 3 19 9 13 37 1 11
4 3 8 13 37 42 23 14 7 16 11 22 22 18 20 18 20 14 2 7 25 37 26 10 34 23 26 28 8 3 9 15 27 30 25 -4 9 -3 0 7 -13 1 25
3 7 11 34 36 14 10 5 19 33 23 24 12 9 17 22 15 20 20 15 30 23 12 11 -3 19 17 13 26 23 14 17 5 14 40 51 -9 21 33 30 -5 0 -5
8 21 52 29 14 8 5 39 26 16 22 28 23 35 9 13 2 4 19 8 13 32 17 27 19 10 8 6 12 12 20 2 19 23 13 16 30 41 2 23 39 12 15
18 58 20 12 9 12 35 23 17 16 20 54 26 16 19 5 12 18 21 19 35 -9 9 2 22 11 8 9 5 7 -5 10 11 15 29 25 25 23 34 5 -5 14 22
52 19 13 11 10 29 27 15 9 13 16 34 14 2 17 13 1 -8 17 20 29 20 17 3 3 7 10 8 11 8 22 11 16 15 29 27 15 14 25 27 19 2 -6
23 14 12 12 18 23 33 19 17 12 19 24 24 22 21 21 22 19 21 -4 16 16 26 -2 -3 -3 3 8 15 20 10 26 23 30 20 9 25 25 6 32 13 24 6
11 8 12 13 9 17 6 13 10 12 10 1 2 11 3 7 18 3 20 17 -1 25 13 18 2 6 3 9 13 25 22 25 20 27 19 22 28 8 9 2 22 11 -6
9 9 10 11 4 22 17 9 3 11 12 11 5 11 9 20 9 16 12 24 26 5 26 17 7 2 6 16 21 13 23 22 22 24 28 7 11 35 14 1 -4 32 2
Height
5842 5841 5840 5839 5837 5835 5833 5832 5831 5830 5829 5826 5825 5824 5821 5820 5820 5819 5818 5817 5817 5815 5814 5813 5814 5813 5813 5811 5811 5810 5810 5809 5810 5809 5809 5809 5809 5809 5809 5809 5809 5808 5808
5837 5836 5834 5833 5831 5828 5827 5825 5823 5821 5821 5820 5818 5816 5814 5812 5811 5811 5810 5809 5808 5809 5807 5806 5805 5805 5805 5805 5805 5804 5803 5802 5802 5802 5802 5802 5802 5802 5802 5802 5802 5802 5802
5830 5829 5828 5826 5823 5822 5820 5818 5816 5814 5812 5810 5810 5808 5805 5803 5801 5799 5801 5799 5799 5799 5797 5797 5797 5796 5796 5796 5796 5796 5795 5794 5794 5794 5795 5795 5795 5795 5795 5795 5795 5795 5795
5824 5822 5821 5819 5815 5812 5809 5807 5806 5806 5803 5801 5799 5798 5796 5795 5793 5792 5790 5790 5789 5786 5788 5787 5786 5786 5786 5785 5785 5785 5786 5785 5785 5785 5785 5786 5787 5787 5787 5787 5787 5787 5787
5818 5817 5814 5810 5807 5804 5803 5799 5797 5793 5792 5791 5789 5787 5786 5785 5783 5780 5780 5779 5778 5780 5777 5778 5777 5776 5774 5774 5773 5773 5775 5774 5773 5774 5776 5776 5777 5778 5778 5779 5780 5780 5780
5809 5806 5803 5800 5797 5795 5791 5788 5784 5781 5778 5777 5776 5775 5776 5774 5771 5771 5770 5769 5769 5768 5769 5769 5766 5766 5765 5762 5762 5763 5763 5763 5762 5762 5764 5765 5766 5767 5768 5769 5771 5771 5771
5796 5793 5790 5788 5785 5782 5779 5775 5772 5769 5765 5761 5758 5757 5757 5757 5758 5757 5758 5757 5755 5755 5754 5756 5756 5755 5754 5753 5752 5751 5752 5753 5753 5753 5754 5754 5755 5756 5757 5758 5760 5761 5761
5786 5782 5778 5774 5770 5768 5765 5760 5756 5753 5749 5744 5739 5737 5738 5741 5738 5738 5738 5739 5739 5739 5739 5739 5740 5740 5741 5739 5741 5740 5739 5740 5741 5742 5742 5744 5744 5745 5746 5747 5748 5749 5750
5774 5771 5768 5763 5759 5755 5751 5746 5740 5735 5732 5726 5719 5715 5713 5714 5717 5720 5719 5716 5718 5721 5720 5721 5721 5720 5724 5725 5725 5726 5726 5726 5728 5730 5732 5732 5734 5735 5736 5736 5738 5739 5740
5763 5760 5756 5752 5746 5740 5734 5728 5721 5717 5713 5710 5704 5698 5691 5688 5691 5695 5696 5696 5692 5694 5698 5699 5700 5701 5703 5706 5709 5710 5711 5713 5714 5717 5719 5721 5722 5723 5723 5725 5726 5728 5728
5751 5746 5740 5735 5729 5724 5718 5711 5704 5695 5690 5685 5682 5681 5676 5670 5664 5659 5668 5671 5667 5668 5670 5674 5676 5679 5682 5685 5689 5692 5695 5696 5700 5702 5704 5707 5708 5710 5711 5712 5713 5713 5715
5737 5731 5724 5718 5711 5705 5697 5690 5682 5674 5668 5664 5661 5658 5654 5651 5647 5639 5633 5642 5641 5647 5645 5647 5653 5657 5660 5663 5668 5672 5675 5678 5681 5685 5688 5690 5693 5697 5698 5699 5699 5699 5700
5720 5714 5706 5699 5690 5681 5675 5668 5660 5653 5646 5641 5638 5634 5629 5625 5622 5619 5614 5614 5618 5619 5623 5626 5628 5632 5638 5642 5646 5650 5654 5658 5662 5666 5670 5674 5676 5680 5682 5685 5686 5688 5689
5705 5697 5688 5680 5671 5662 5652 5643 5637 5626 5620 5611 5606 5601 5599 5596 5591 5590 5587 5583 5587 5596 5599 5603 5606 5609 5613 5619 5624 5628 5633 5638 5644 5648 5651 5656 5660 5663 5666 5670 5672 5675 5676
5686 5677 5668 5660 5649 5638 5628 5617 5606 5596 5589 5583 5578 5573 5567 5563 5559 5558 5556 5553 5551 5561 5572 5578 5580 5582 5587 5594 5603 5606 5613 5618 5623 5629 5634 5638 5642 5646 5649 5654 5657 5661 5663
5669 5660 5650 5639 5627 5614 5599 5587 5579 5570 5563 5558 5553 5549 5544 5540 5538 5540 5532 5529 5526 5527 5536 5553 5552 5555 5561 5568 5576 5582 5590 5593 5601 5608 5614 5619 5623 5630 5633 5637 5641 5645 5647
5648 5639 5629 5617 5603 5591 5577 5564 5557 5550 5542 5538 5534 5532 5528 5524 5522 5519 5514 5513 5509 5511 5513 5528 5528 5529 5534 5542 5550 5557 5566 5571 5579 5586 5594 5600 5605 5610 5615 5620 5624 5629 5632
5630 5618 5604 5593 5582 5569 5557 5547 5539 5533 5526 5520 5516 5512 5509 5505 5504 5502 5499 5500 5498 5497 5498 5507 5512 5515 5515 5519 5525 5533 5541 5548 5558 5565 5573 5578 5582 5591 5597 5603 5607 5610 5616
5609 5596 5584 5571 5559 5548 5540 5531 5523 5515 5508 5501 5497 5493 5491 5489 5488 5486 5484 5484 5483 5484 5484 5489 5499 5500 5504 5506 5509 5514 5519 5525 5534 5544 5549 5556 5559 5567 5576 5584 5586 5592 5600
5589 5578 5565 5552 5542 5534 5525 5515 5505 5497 5490 5485 5481 5479 5476 5473 5472 5471 5470 5471 5471 5470 5471 5474 5482 5486 5489 5492 5494 5498 5503 5509 5515 5518 5525 5535 5540 5545 5554 5562 5569 5575 5582
5572 5559 5548 5538 5528 5518 5508 5498 5489 5482 5476 5470 5466 5464 5463 5461 5460 5459 5459 5458 5459 5459 5461 5462 5466 5471 5477 5479 5480 5482 5484 5489 5494 5500 5505 5510 5520 5528 5536 5544 5550 5557 5564
5554 5543 5534 5524 5515 5504 5492 5484 5478 5473 5464 5455 5455 5455 5454 5452 5450 5448 5447 5445 5446 5447 5450 5450 5454 5458 5463 5466 5467 5467 5467 5471 5472 5476 5481 5489 5497 5506 5515 5525 5533 5542 5549
5539 5530 5521 5512 5502 5490 5482 5475 5470 5464 5457 5451 5448 5446 5444 5442 5439 5437 5436 5435 5434 5435 5437 5439 5444 5447 5449 5451 5451 5452 5452 5452 5454 5457 5463 5469 5478 5489 5497 5507 5517 5526 5533
5527 5519 5510 5502 5492 5481 5473 5467 5462 5456 5450 5445 5440 5437 5434 5431 5427 5424 5423 5425 5424 5424 5423 5428 5432 5435 5435 5436 5436 5435 5435 5435 5436 5440 5450 5455 5464 5476 5485 5493 5503 5511 5520
5515 5509 5500 5492 5484 5476 5468 5461 5455 5449 5444 5439 5433 5428 5422 5419 5415 5411 5411 5412 5413 5413 5412 5416 5421 5422 5422 5424 5424 5421 5422 5423 5424 5429 5434 5445 5453 5462 5471 5480 5485 5496 5502
5507 5500 5491 5482 5475 5470 5462 5455 5448 5442 5436 5431 5425 5418 5410 5403 5401 5398 5396 5397 5400 5402 5403 5405 5408 5411 5412 5412 5412 5410 5410 5412 5416 5419 5426 5435 5442 5450 5457 5468 5472 5481 5488